Flag for U.S.A. Weather past 2 weeks in Antioch, California, U.S.A.

Now
55 °F

Sunny.


Feels Like: 54 °F
Forecast: 43 / 66 °F
Wind: 5 mph from North

Location: Buchanan Field

Current Time: Mar 3, 2015 at 10:50:44 AM

Latest Report: Mar 3, 2015 at 9:53 AM


Visibility: 10 mi

Pressure: 30.03 "Hg

Humidity: 64%

Dew point: 43 °F

Location of AntiochLocation

Historic Weather in Antioch — Graph

°F

Antioch temperature yesterday

Maximum temperature yesterday: 62 °F (at 2:53 PM)
Minimum temperature yesterday: 48 °F (at 11:53 PM)
Average temperature yesterday: 54 °F

Past Weeks' High & Low Weather Summary

 TemperatureHumidityPressure
High73 °F (Feb 26, 2:53 PM)97% (Feb 19, 7:53 AM)30.32 "Hg (Feb 19, 7:53 AM)
Low36 °F (Feb 24, 4:53 AM)9% (Feb 24, 11:53 AM)29.68 "Hg (Feb 28, 3:53 AM)
Average56 °F65%29.97 "Hg
* Reported Feb 16 9:53 AM — Mar 3 9:53 AM, Antioch, Weather by CustomWeather, © 2015

Note: Actual official high and low records may vary slightly from our data, if they occured in-between our weather recording intervals... More about our weather records

Advertising

Antioch weather history for previous 24 hours

 ConditionsComfort  
Time TempWeatherWind HumidityBarometerVisibility
9:53 AM
Tue, Mar 3
55 °FSunny.5 mph64%30.03 "Hg10 mi
8:53 AM51 °FSunny.No wind71%30.03 "Hg10 mi
7:53 AM46 °FSunny.No wind83%30.01 "Hg10 mi
6:53 AM42 °FSunny.No wind89%29.99 "Hg10 mi
5:53 AM42 °FClear.3 mph89%29.98 "Hg10 mi
4:53 AM43 °FClear.5 mph86%29.97 "Hg10 mi
3:53 AM43 °FClear.5 mph86%29.95 "Hg10 mi
2:53 AM45 °FClear.5 mph82%29.96 "Hg10 mi
1:53 AM45 °FClear.3 mph82%29.96 "Hg10 mi
12:53 AM46 °FPassing clouds.No wind83%29.96 "Hg10 mi
11:53 PM
Mon, Mar 2
48 °FClear.3 mph80%29.95 "Hg10 mi
10:53 PM49 °FClear.No wind80%29.93 "Hg10 mi
9:53 PM50 °FClear.No wind80%29.92 "Hg10 mi
8:53 PM54 °FOvercast.No wind72%29.90 "Hg10 mi
7:53 PM53 °FPartly cloudy.No wind74%29.88 "Hg10 mi
6:53 PM54 °FPassing clouds.5 mph74%29.84 "Hg10 mi
5:53 PM57 °FPartly sunny.5 mph64%29.81 "Hg10 mi
4:53 PM60 °FMostly cloudy.3 mph49%29.79 "Hg10 mi
3:53 PM62 °FBroken clouds.No wind43%29.77 "Hg10 mi
2:53 PM62 °FScattered clouds.N/A43%29.76 "Hg10 mi
1:53 PM61 °FScattered clouds.6 mph44%29.76 "Hg10 mi
12:53 PM60 °FPartly sunny.10 mph49%29.77 "Hg10 mi
11:53 AM59 °FPartly sunny.10 mph54%29.77 "Hg10 mi
10:53 AM58 °FScattered clouds.13 mph60%29.77 "Hg10 mi
Weather by CustomWeather, © 2015

See weather overviewHow to use our weather pages